Regional Weather Roundup
Issued by NWS

Home | Current Version | Previous Version | Graphics & Text | Print | Product List | Glossary Off
Versions: 1 2 3 4 5 6 7 8 9 10 11 12 13 14 15 16 17 18 19 20 21 22 23 24 25 26 27 28 29 30 31 32 33 34 35 36 37 38 39 40 41 42 43 44 45 46 47 48 49 50

000
ASUS43 KFSD 240802
RWRSD

WEATHER ROUNDUP FOR SOUTH DAKOTA
NATIONAL WEATHER SERVICE SIOUX FALLS SD
200 AM CST SAT FEB 24 2018

NOTE: "FAIR" INDICATES FEW OR NO CLOUDS BELOW 12,000 FEET WITH NO
SIGNIFICANT WEATHER AND/OR OBSTRUCTIONS TO VISIBILITY.


SDZ001>005-009-010-012>017-240900-
NORTHWEST AND NORTH CENTRAL SOUTH DAKOTA

CITY           SKY/WX    TMP DP  RH WIND       PRES   REMARKS
BUFFALO          N/A      3  -3  76 S12       29.81F WCI -13
FAITH            N/A      1  -1  91 SE16      29.95F WCI -19
MOBRIDGE       MOCLDY    -6 -10  83 SE3       30.06S
$$

SDZ012>016-024>037-041>051-057-063-072>074-240900-
SOUTHWEST AND SOUTH CENTRAL SOUTH DAKOTA

CITY           SKY/WX    TMP DP  RH WIND       PRES   REMARKS
RAPID CTY ARPT MOCLDY    14   6  70 S8        29.89F WCI   3
PIERRE         CLOUDY    -2  -4  91 CALM      30.09F
CUSTER         MOCLDY    17   3  54 SW8       29.79F WCI   7
ELLSWORTH AFB  MOCLDY    15   7  70 SE14      29.87F WCI   0
PHILIP         CLOUDY    -2  -4  91 E7        30.03F WCI -15
PINE RIDGE     CLOUDY    19  13  77 VRB3      29.93F
SPEARFISH        N/A     18   9  68 CALM      29.83F
WINNER         FAIR      14   9  80 SE8       30.08F WCI   3
$$

SDZ004>011-016>023-039-040-240900-
NORTHEAST SOUTH DAKOTA

CITY           SKY/WX    TMP DP  RH WIND       PRES   REMARKS
ABERDEEN       ICE FOG  -12 -15  86 S3        30.17F VSB 1/4
WATERTOWN      CLOUDY    -4  -7  87 CALM      30.13F FOG
BROOKINGS      LGT SNOW   3   0  87 SE7       30.16F FOG     WCI  -9
SISSETON         N/A     -7 -10  87 CALM      30.18F
$$

SDZ017-020-022-023-036>040-048>070-240900-
SOUTHEAST SOUTH DAKOTA

CITY           SKY/WX    TMP DP  RH WIND       PRES   REMARKS
SIOUX FALLS    FOG       15  13  91 E8        30.17F VSB 1/4 WCI   4
HURON          CLOUDY    -2  -3  96 S5        30.18F FOG     WCI -12
CHAMBERLAIN    CLOUDY     6   4  91 E5        30.12F WCI  -3
MITCHELL       FOG        2   1  96 SE3       30.18F VSB 1/4
YANKTON        SNOW      14  12  92 E8        30.18F VSB 1/2 WCI   3
$$

ABBREVIATIONS USED IN REMARKS
   TC - TEMPERATURE IN CELSIUS
  WCI - WIND CHILL INDEX
   HX - HEAT INDEX
  VSB - VISIBILITY





USA.gov is the U.S. government's official web portal to all federal, state and local government web resources and services.